User: anonymous   Login
Location: Unspecified
(0.0000°N, 0.0000°E)
Time: 16:16:49
(UTC+02:00)
Language:

NOAA 12 - Orbit

View from above orbital plane
View from above orbital plane
View from above satellite
View from above satellite

Ground track
Ground track

The orbit data is extracted from the following two-line orbital elements,

1 21263U 91032A   16147.49533857  .00000010  00000-0  22647-4 0  9998
2 21263  98.5967 173.5655 0013124 335.0645  24.9899 14.25811661301627
Epoch (UTC): 26 May 2016 11:53:17
Eccentricity: 0.0013124
inclination: 98.5967°
perigee height: 796 km
apogee height: 815 km
right ascension of ascending node: 173.5655°
argument of perigee: 335.0645°
revolutions per day: 14.25811661
mean anomaly at epoch: 24.9899°
orbit number at epoch: 30162

The dashed part of the orbit path shows where the satellite is in the earth's shadow,  

DLR